Home   Weather   Columbus   Past weeks

Flag for USA Past Weather in Columbus, Georgia, USA — Yesterday and Last 2 Weeks

58 °F


Feels Like: 58 °F
Forecast: 57 / 84 °F
Wind: No wind

Location: Columbus Metropolitan Airport

Current Time: Oct 28, 2016 at 6:28:30 AM

Latest Report: Oct 28, 2016 at 5:51 AM

Visibility: 10 mi

Pressure: 30.22 "Hg

Humidity: 90%

Dew Point: 55 °F

Location of ColumbusLocation

Past Weather in Columbus — Graph


Columbus Temperature Yesterday

Maximum temperature yesterday: 81 °F (at 4:51 PM)
Minimum temperature yesterday: 62 °F (at 3:51 AM)
Average temperature yesterday: 70 °F

High & Low Weather Summary for the Past Weeks

High88 °F (Oct 19, 4:51 PM)94% (Oct 16, 6:51 AM)30.34 "Hg (Oct 16, 6:51 AM)
Low44 °F (Oct 23, 6:51 AM)19% (Oct 23, 3:51 PM)29.85 "Hg (Oct 21, 2:51 AM)
Average69 °F60%30.13 "Hg
* Reported Oct 13 4:51 AM — Oct 28 4:51 AM, Columbus, Weather by CustomWeather, © 2016

Note: Actual official high and low records may vary slightly from our data, if they occured in-between our weather recording intervals... More about our weather records


Columbus Weather History for the Previous 24 Hours

Scroll right to see more
Time TempWeatherWind HumidityBarometerVisibility
4:51 AM
Fri, Oct 28
58 °FClear.No wind93%30.22 "Hg10 mi
3:51 AM60 °FClear.No wind86%30.21 "Hg10 mi
2:51 AM60 °FClear.No wind86%30.22 "Hg10 mi
1:51 AM61 °FClear.No wind87%30.21 "Hg10 mi
12:51 AM64 °FClear.No wind78%30.22 "Hg10 mi
11:51 PM
Thu, Oct 27
62 °FClear.3 mph83%30.23 "Hg10 mi
10:51 PM66 °FClear.No wind75%30.23 "Hg10 mi
9:51 PM68 °FClear.No wind70%30.22 "Hg10 mi
8:51 PM71 °FClear.No wind63%30.22 "Hg10 mi
7:51 PM75 °FClear.3 mph52%30.21 "Hg10 mi
6:51 PM79 °FSunny.5 mph44%30.19 "Hg10 mi
5:51 PM80 °FPassing clouds.3 mph42%30.19 "Hg10 mi
4:51 PM81 °FSunny.6 mph42%30.19 "Hg10 mi
3:51 PM79 °FSunny.3 mph44%30.21 "Hg10 mi
2:51 PM80 °FSunny.5 mph47%30.22 "Hg10 mi
1:51 PM78 °FPassing clouds.No wind52%30.25 "Hg10 mi
12:51 PM77 °FPassing clouds.3 mph56%30.28 "Hg10 mi
11:51 AM73 °FPartly sunny.5 mph64%30.31 "Hg10 mi
10:51 AM69 °FSunny.No wind73%30.31 "Hg10 mi
9:51 AM65 °FSunny.No wind78%30.31 "Hg10 mi
8:51 AM63 °FSunny.3 mph81%30.29 "Hg10 mi
7:51 AM62 °FPassing clouds.3 mph80%30.27 "Hg10 mi
6:51 AM63 °FOvercast.6 mph81%30.26 "Hg10 mi
Weather by CustomWeather, © 2016

See weather overviewHow to use our weather pages